PRIVATE WETTERSTATION BILLIGHEIM-ALLFELD                       ZURCK
Wetterdaten: Samstag, 29.11.2014
Datum Zeit Temp. A. Temp. A. min Temp. A. max Feuchte A. Luftdruck Regen Wind Richtung Richtung Sonnenschein ET Solar Taupunkt Windchill Windben Empfang
29.11.2014 00:00 2,9 C 2,9 C 2,9 C 90 % 1013,4 hPa 0,0 l/m 1,6 km/h (1 Bft) NO 45 0 min 0,000 mm 0 W/m 1,4 C 2,9 C 11,3 km/h (2 Bft) 98 %
29.11.2014 00:10 2,9 C 2,9 C 2,9 C 90 % 1013,4 hPa 0,0 l/m 1,6 km/h (1 Bft) O-NO 67 0 min 0,000 mm 0 W/m 1,4 C 2,9 C 11,3 km/h (2 Bft) 97 %
29.11.2014 00:20 2,9 C 2,9 C 2,9 C 90 % 1013,5 hPa 0,0 l/m 0,0 km/h (0 Bft) O 90 0 min 0,000 mm 0 W/m 1,4 C 2,9 C 3,2 km/h (1 Bft) 88 %
29.11.2014 00:30 2,9 C 2,9 C 2,9 C 90 % 1013,6 hPa 0,0 l/m 1,6 km/h (1 Bft) O-SO 112 0 min 0,000 mm 0 W/m 1,4 C 2,9 C 6,4 km/h (2 Bft) 97 %
29.11.2014 00:40 2,9 C 2,9 C 2,9 C 90 % 1013,7 hPa 0,0 l/m 1,6 km/h (1 Bft) NO 45 0 min 0,000 mm 0 W/m 1,4 C 2,9 C 8,0 km/h (2 Bft) 98 %
29.11.2014 00:50 2,8 C 2,8 C 2,9 C 90 % 1013,5 hPa 0,0 l/m 1,6 km/h (1 Bft) NO 45 0 min 0,000 mm 0 W/m 1,3 C 2,8 C 11,3 km/h (2 Bft) 98 %
29.11.2014 01:00 2,8 C 2,8 C 2,8 C 90 % 1013,5 hPa 0,0 l/m 0,0 km/h (0 Bft) N-NO 22 0 min 0,000 mm 0 W/m 1,3 C 2,8 C 4,8 km/h (1 Bft) 97 %
29.11.2014 01:10 2,8 C 2,8 C 2,8 C 90 % 1013,6 hPa 0,0 l/m 0,0 km/h (0 Bft) O 90 0 min 0,000 mm 0 W/m 1,3 C 2,8 C 4,8 km/h (1 Bft) 98 %
29.11.2014 01:20 2,8 C 2,8 C 2,8 C 90 % 1013,6 hPa 0,0 l/m 1,6 km/h (1 Bft) NO 45 0 min 0,000 mm 0 W/m 1,3 C 2,8 C 16,1 km/h (3 Bft) 97 %
29.11.2014 01:30 2,8 C 2,8 C 2,8 C 90 % 1013,7 hPa 0,0 l/m 1,6 km/h (1 Bft) O-NO 67 0 min 0,000 mm 0 W/m 1,3 C 2,8 C 9,7 km/h (2 Bft) 98 %
29.11.2014 01:40 2,8 C 2,8 C 2,8 C 90 % 1013,8 hPa 0,0 l/m 3,2 km/h (1 Bft) O-NO 67 0 min 0,000 mm 0 W/m 1,3 C 2,8 C 17,7 km/h (3 Bft) 97 %
29.11.2014 01:50 2,8 C 2,7 C 2,8 C 90 % 1013,9 hPa 0,0 l/m 1,6 km/h (1 Bft) O-NO 67 0 min 0,000 mm 0 W/m 1,3 C 2,8 C 14,5 km/h (3 Bft) 98 %
29.11.2014 02:00 2,7 C 2,7 C 2,8 C 90 % 1013,9 hPa 0,0 l/m 3,2 km/h (1 Bft) O-NO 67 0 min 0,000 mm 0 W/m 1,2 C 2,7 C 11,3 km/h (2 Bft) 98 %
29.11.2014 02:10 2,7 C 2,7 C 2,7 C 90 % 1014,0 hPa 0,0 l/m 1,6 km/h (1 Bft) O-SO 112 0 min 0,000 mm 0 W/m 1,2 C 2,7 C 8,0 km/h (2 Bft) 97 %
29.11.2014 02:20 2,7 C 2,7 C 2,7 C 90 % 1013,8 hPa 0,0 l/m 1,6 km/h (1 Bft) O 90 0 min 0,000 mm 0 W/m 1,2 C 2,7 C 8,0 km/h (2 Bft) 98 %
29.11.2014 02:30 2,6 C 2,6 C 2,7 C 90 % 1014,0 hPa 0,0 l/m 1,6 km/h (1 Bft) O-NO 67 0 min 0,000 mm 0 W/m 1,1 C 2,6 C 9,7 km/h (2 Bft) 97 %
29.11.2014 02:40 2,6 C 2,6 C 2,6 C 90 % 1013,8 hPa 0,0 l/m 1,6 km/h (1 Bft) O 90 0 min 0,000 mm 0 W/m 1,1 C 2,6 C 14,5 km/h (3 Bft) 98 %
29.11.2014 02:50 2,6 C 2,6 C 2,6 C 90 % 1013,9 hPa 0,0 l/m 1,6 km/h (1 Bft) O-NO 67 0 min 0,000 mm 0 W/m 1,1 C 2,6 C 9,7 km/h (2 Bft) 97 %
29.11.2014 03:00 2,6 C 2,6 C 2,6 C 90 % 1014,1 hPa 0,0 l/m 1,6 km/h (1 Bft) O 90 0 min 0,000 mm 0 W/m 1,1 C 2,6 C 8,0 km/h (2 Bft) 97 %
29.11.2014 03:10 2,5 C 2,5 C 2,6 C 90 % 1014,1 hPa 0,0 l/m 1,6 km/h (1 Bft) NO 45 0 min 0,000 mm 0 W/m 1,0 C 2,5 C 6,4 km/h (2 Bft) 98 %
29.11.2014 03:20 2,5 C 2,5 C 2,5 C 91 % 1014,1 hPa 0,0 l/m 1,6 km/h (1 Bft) O 90 0 min 0,000 mm 0 W/m 1,2 C 2,5 C 9,7 km/h (2 Bft) 97 %
29.11.2014 03:30 2,5 C 2,4 C 2,5 C 91 % 1014,2 hPa 0,0 l/m 0,0 km/h (0 Bft) NO 45 0 min 0,000 mm 0 W/m 1,2 C 2,5 C 6,4 km/h (2 Bft) 98 %
29.11.2014 03:40 2,4 C 2,4 C 2,5 C 90 % 1014,0 hPa 0,0 l/m 0,0 km/h (0 Bft) O-SO 112 0 min 0,000 mm 0 W/m 0,9 C 2,4 C 6,4 km/h (2 Bft) 97 %
29.11.2014 03:50 2,4 C 2,4 C 2,4 C 91 % 1013,9 hPa 0,0 l/m 0,0 km/h (0 Bft) N-NO 22 0 min 0,000 mm 0 W/m 1,1 C 2,4 C 4,8 km/h (1 Bft) 88 %
29.11.2014 04:00 2,4 C 2,4 C 2,4 C 91 % 1013,9 hPa 0,0 l/m 0,0 km/h (0 Bft) NO 45 0 min 0,000 mm 0 W/m 1,1 C 2,4 C 4,8 km/h (1 Bft) 96 %
29.11.2014 04:10 2,4 C 2,3 C 2,4 C 91 % 1013,9 hPa 0,0 l/m 0,0 km/h (0 Bft) O 90 0 min 0,000 mm 0 W/m 1,1 C 2,4 C 3,2 km/h (1 Bft) 97 %
29.11.2014 04:20 2,3 C 2,3 C 2,4 C 91 % 1013,8 hPa 0,0 l/m 1,6 km/h (1 Bft) O-NO 67 0 min 0,000 mm 0 W/m 1,0 C 2,3 C 6,4 km/h (2 Bft) 97 %
29.11.2014 04:30 2,3 C 2,3 C 2,3 C 91 % 1013,8 hPa 0,0 l/m 0,0 km/h (0 Bft) NO 45 0 min 0,000 mm 0 W/m 1,0 C 2,3 C 6,4 km/h (2 Bft) 98 %
29.11.2014 04:40 2,3 C 2,3 C 2,3 C 91 % 1013,7 hPa 0,0 l/m 1,6 km/h (1 Bft) O-SO 112 0 min 0,000 mm 0 W/m 1,0 C 2,3 C 9,7 km/h (2 Bft) 97 %
29.11.2014 04:50 2,3 C 2,3 C 2,3 C 91 % 1013,6 hPa 0,0 l/m 1,6 km/h (1 Bft) NO 45 0 min 0,000 mm 0 W/m 1,0 C 2,3 C 4,8 km/h (1 Bft) 97 %
29.11.2014 05:00 2,3 C 2,3 C 2,3 C 91 % 1013,7 hPa 0,0 l/m 1,6 km/h (1 Bft) N-NO 22 0 min 0,000 mm 0 W/m 1,0 C 2,3 C 9,7 km/h (2 Bft) 98 %
29.11.2014 05:10 2,2 C 2,2 C 2,3 C 91 % 1014,0 hPa 0,0 l/m 0,0 km/h (0 Bft) O-NO 67 0 min 0,000 mm 0 W/m 0,9 C 2,2 C 3,2 km/h (1 Bft) 97 %
29.11.2014 05:20 2,2 C 2,2 C 2,3 C 91 % 1014,0 hPa 0,0 l/m 0,0 km/h (0 Bft) O-NO 67 0 min 0,000 mm 0 W/m 0,9 C 2,2 C 8,0 km/h (2 Bft) 98 %
29.11.2014 05:30 2,2 C 2,2 C 2,2 C 91 % 1014,1 hPa 0,0 l/m 0,0 km/h (0 Bft) N-NO 22 0 min 0,000 mm 0 W/m 0,9 C 2,2 C 6,4 km/h (2 Bft) 98 %
29.11.2014 05:40 2,2 C 2,2 C 2,2 C 91 % 1014,1 hPa 0,0 l/m 1,6 km/h (1 Bft) O-NO 67 0 min 0,000 mm 0 W/m 0,9 C 2,2 C 9,7 km/h (2 Bft) 98 %
29.11.2014 05:50 2,2 C 2,2 C 2,2 C 91 % 1014,1 hPa 0,0 l/m 0,0 km/h (0 Bft) N-NO 22 0 min 0,000 mm 0 W/m 0,9 C 2,2 C 6,4 km/h (2 Bft) 98 %
29.11.2014 06:00 2,1 C 2,1 C 2,2 C 91 % 1014,0 hPa 0,0 l/m 0,0 km/h (0 Bft) O-NO 67 0 min 0,000 mm 0 W/m 0,8 C 2,1 C 11,3 km/h (2 Bft) 97 %
29.11.2014 06:10 2,1 C 2,1 C 2,2 C 91 % 1014,1 hPa 0,0 l/m 0,0 km/h (0 Bft) O-NO 67 0 min 0,000 mm 0 W/m 0,8 C 2,1 C 8,0 km/h (2 Bft) 98 %
29.11.2014 06:20 2,1 C 2,1 C 2,1 C 91 % 1014,1 hPa 0,0 l/m 0,0 km/h (0 Bft) NO 45 0 min 0,000 mm 0 W/m 0,8 C 2,1 C 4,8 km/h (1 Bft) 97 %
29.11.2014 06:30 2,1 C 2,1 C 2,1 C 91 % 1014,2 hPa 0,0 l/m 1,6 km/h (1 Bft) NO 45 0 min 0,000 mm 0 W/m 0,8 C 2,1 C 6,4 km/h (2 Bft) 98 %
29.11.2014 06:40 2,1 C 2,1 C 2,1 C 91 % 1014,3 hPa 0,0 l/m 0,0 km/h (0 Bft) O 90 0 min 0,000 mm 0 W/m 0,8 C 2,1 C 6,4 km/h (2 Bft) 97 %
29.11.2014 06:50 2,1 C 2,1 C 2,1 C 91 % 1014,4 hPa 0,0 l/m 0,0 km/h (0 Bft) O 90 0 min 0,000 mm 0 W/m 0,8 C 2,1 C 8,0 km/h (2 Bft) 97 %
29.11.2014 07:00 2,1 C 2,1 C 2,1 C 91 % 1014,5 hPa 0,0 l/m 0,0 km/h (0 Bft) NO 45 0 min 0,000 mm 0 W/m 0,8 C 2,1 C 4,8 km/h (1 Bft) 98 %
29.11.2014 07:10 2,1 C 2,1 C 2,1 C 91 % 1014,6 hPa 0,0 l/m 0,0 km/h (0 Bft) O 90 0 min 0,000 mm 0 W/m 0,8 C 2,1 C 4,8 km/h (1 Bft) 97 %
29.11.2014 07:20 2,1 C 2,1 C 2,1 C 91 % 1014,7 hPa 0,0 l/m 0,0 km/h (0 Bft) O-SO 112 0 min 0,000 mm 0 W/m 0,8 C 2,1 C 6,4 km/h (2 Bft) 98 %
29.11.2014 07:30 2,1 C 2,1 C 2,2 C 91 % 1014,8 hPa 0,0 l/m 1,6 km/h (1 Bft) O 90 0 min 0,000 mm 0 W/m 0,8 C 2,1 C 9,7 km/h (2 Bft) 97 %
29.11.2014 07:40 2,1 C 2,1 C 2,1 C 91 % 1014,8 hPa 0,0 l/m 1,6 km/h (1 Bft) O-NO 67 0 min 0,000 mm 0 W/m 0,8 C 2,1 C 8,0 km/h (2 Bft) 98 %
29.11.2014 07:50 2,2 C 2,1 C 2,2 C 91 % 1014,8 hPa 0,0 l/m 0,0 km/h (0 Bft) N-NO 22 0 min 0,000 mm 0 W/m 0,9 C 2,2 C 6,4 km/h (2 Bft) 97 %
29.11.2014 08:00 2,2 C 2,2 C 2,2 C 91 % 1014,8 hPa 0,0 l/m 0,0 km/h (0 Bft) O-NO 67 0 min 0,000 mm 0 W/m 0,9 C 2,2 C 4,8 km/h (1 Bft) 99 %
29.11.2014 08:10 2,2 C 2,2 C 2,2 C 91 % 1015,0 hPa 0,0 l/m 1,6 km/h (1 Bft) O 90 0 min 0,000 mm 0 W/m 0,9 C 2,2 C 6,4 km/h (2 Bft) 98 %
29.11.2014 08:20 2,2 C 2,2 C 2,2 C 91 % 1015,0 hPa 0,0 l/m 0,0 km/h (0 Bft) O-SO 112 0 min 0,000 mm 0 W/m 0,9 C 2,2 C 8,0 km/h (2 Bft) 99 %
29.11.2014 08:30 2,2 C 2,2 C 2,2 C 91 % 1015,0 hPa 0,0 l/m 0,0 km/h (0 Bft) SO 135 0 min 0,000 mm 5 W/m 0,9 C 2,2 C 4,8 km/h (1 Bft) 100 %
29.11.2014 08:40 2,2 C 2,2 C 2,2 C 91 % 1015,2 hPa 0,0 l/m 1,6 km/h (1 Bft) SO 135 0 min 0,000 mm 7 W/m 0,9 C 2,2 C 6,4 km/h (2 Bft) 100 %
29.11.2014 08:50 2,3 C 2,2 C 2,3 C 91 % 1015,2 hPa 0,0 l/m 0,0 km/h (0 Bft) O 90 0 min 0,000 mm 11 W/m 1,0 C 2,3 C 6,4 km/h (2 Bft) 88 %
29.11.2014 09:00 2,3 C 2,2 C 2,3 C 91 % 1015,1 hPa 0,0 l/m 1,6 km/h (1 Bft) O-SO 112 0 min 0,000 mm 12 W/m 1,0 C 2,3 C 8,0 km/h (2 Bft) 100 %
29.11.2014 09:10 2,3 C 2,3 C 2,3 C 91 % 1015,1 hPa 0,0 l/m 0,0 km/h (0 Bft) O-NO 67 0 min 0,000 mm 16 W/m 1,0 C 2,3 C 6,4 km/h (2 Bft) 100 %
29.11.2014 09:20 2,3 C 2,3 C 2,3 C 91 % 1015,1 hPa 0,0 l/m 0,0 km/h (0 Bft) O 90 0 min 0,000 mm 18 W/m 1,0 C 2,3 C 6,4 km/h (2 Bft) 99 %
29.11.2014 09:30 2,4 C 2,3 C 2,4 C 91 % 1015,3 hPa 0,0 l/m 0,0 km/h (0 Bft) O-SO 112 0 min 0,000 mm 19 W/m 1,1 C 2,4 C 4,8 km/h (1 Bft) 100 %
29.11.2014 09:40 2,4 C 2,4 C 2,4 C 91 % 1015,4 hPa 0,0 l/m 1,6 km/h (1 Bft) NO 45 0 min 0,000 mm 25 W/m 1,1 C 2,4 C 8,0 km/h (2 Bft) 100 %
29.11.2014 09:50 2,4 C 2,4 C 2,4 C 91 % 1015,3 hPa 0,0 l/m 1,6 km/h (1 Bft) O 90 0 min 0,000 mm 28 W/m 1,1 C 2,4 C 8,0 km/h (2 Bft) 99 %
29.11.2014 10:00 2,5 C 2,4 C 2,5 C 91 % 1015,4 hPa 0,0 l/m 1,6 km/h (1 Bft) O 90 0 min 0,000 mm 30 W/m 1,2 C 2,5 C 9,7 km/h (2 Bft) 100 %
29.11.2014 10:10 2,5 C 2,5 C 2,5 C 91 % 1015,3 hPa 0,0 l/m 0,0 km/h (0 Bft) O-SO 112 0 min 0,000 mm 33 W/m 1,2 C 2,5 C 4,8 km/h (1 Bft) 99 %
29.11.2014 10:20 2,6 C 2,5 C 2,6 C 91 % 1015,3 hPa 0,0 l/m 1,6 km/h (1 Bft) O-NO 67 0 min 0,000 mm 39 W/m 1,3 C 2,6 C 14,5 km/h (3 Bft) 100 %
29.11.2014 10:30 2,6 C 2,6 C 2,7 C 90 % 1015,4 hPa 0,0 l/m 1,6 km/h (1 Bft) NO 45 0 min 0,000 mm 39 W/m 1,1 C 2,6 C 8,0 km/h (2 Bft) 100 %
29.11.2014 10:40 2,7 C 2,6 C 2,7 C 90 % 1015,5 hPa 0,0 l/m 0,0 km/h (0 Bft) NO 45 0 min 0,000 mm 40 W/m 1,2 C 2,7 C 6,4 km/h (2 Bft) 100 %
29.11.2014 10:50 2,7 C 2,7 C 2,7 C 90 % 1015,5 hPa 0,0 l/m 1,6 km/h (1 Bft) O 90 0 min 0,000 mm 40 W/m 1,2 C 2,7 C 8,0 km/h (2 Bft) 100 %
29.11.2014 11:00 2,8 C 2,7 C 2,8 C 90 % 1015,4 hPa 0,0 l/m 1,6 km/h (1 Bft) O 90 0 min 0,025 mm 44 W/m 1,3 C 2,8 C 9,7 km/h (2 Bft) 99 %
29.11.2014 11:10 2,7 C 2,7 C 2,8 C 90 % 1015,3 hPa 0,0 l/m 1,6 km/h (1 Bft) O-NO 67 0 min 0,000 mm 46 W/m 1,2 C 2,7 C 12,9 km/h (3 Bft) 100 %
29.11.2014 11:20 2,8 C 2,7 C 2,8 C 90 % 1015,4 hPa 0,0 l/m 0,0 km/h (0 Bft) O 90 0 min 0,000 mm 49 W/m 1,3 C 2,8 C 4,8 km/h (1 Bft) 99 %
29.11.2014 11:30 2,8 C 2,8 C 2,8 C 90 % 1015,2 hPa 0,0 l/m 0,0 km/h (0 Bft) O-SO 112 0 min 0,000 mm 51 W/m 1,3 C 2,8 C 6,4 km/h (2 Bft) 99 %
29.11.2014 11:40 2,8 C 2,8 C 2,9 C 89 % 1015,2 hPa 0,0 l/m 0,0 km/h (0 Bft) N-NO 22 0 min 0,000 mm 53 W/m 1,2 C 2,8 C 6,4 km/h (2 Bft) 100 %
29.11.2014 11:50 2,9 C 2,8 C 2,9 C 89 % 1015,2 hPa 0,0 l/m 1,6 km/h (1 Bft) O-NO 67 0 min 0,000 mm 53 W/m 1,3 C 2,9 C 8,0 km/h (2 Bft) 99 %
29.11.2014 12:00 2,8 C 2,8 C 2,9 C 89 % 1015,0 hPa 0,0 l/m 1,6 km/h (1 Bft) O 90 0 min 0,025 mm 53 W/m 1,2 C 2,8 C 11,3 km/h (2 Bft) 100 %
29.11.2014 12:10 2,9 C 2,8 C 2,9 C 90 % 1015,0 hPa 0,0 l/m 0,0 km/h (0 Bft) SO 135 0 min 0,000 mm 54 W/m 1,4 C 2,9 C 11,3 km/h (2 Bft) 99 %
29.11.2014 12:20 2,9 C 2,9 C 2,9 C 89 % 1014,9 hPa 0,0 l/m 1,6 km/h (1 Bft) O-NO 67 0 min 0,000 mm 53 W/m 1,3 C 2,9 C 8,0 km/h (2 Bft) 89 %
29.11.2014 12:30 2,9 C 2,9 C 2,9 C 89 % 1014,8 hPa 0,0 l/m 1,6 km/h (1 Bft) NO 45 0 min 0,000 mm 53 W/m 1,3 C 2,9 C 8,0 km/h (2 Bft) 100 %
29.11.2014 12:40 3,0 C 2,9 C 3,0 C 89 % 1014,7 hPa 0,0 l/m 0,0 km/h (0 Bft) O 90 0 min 0,000 mm 53 W/m 1,4 C 3,0 C 4,8 km/h (1 Bft) 100 %
29.11.2014 12:50 3,0 C 3,0 C 3,0 C 89 % 1014,7 hPa 0,0 l/m 1,6 km/h (1 Bft) O-SO 112 0 min 0,000 mm 54 W/m 1,4 C 3,0 C 11,3 km/h (2 Bft) 100 %
29.11.2014 13:00 3,1 C 3,0 C 3,1 C 89 % 1014,6 hPa 0,0 l/m 1,6 km/h (1 Bft) NO 45 0 min 0,025 mm 56 W/m 1,5 C 3,1 C 9,7 km/h (2 Bft) 100 %
29.11.2014 13:10 3,1 C 3,0 C 3,1 C 89 % 1014,6 hPa 0,0 l/m 1,6 km/h (1 Bft) NO 45 0 min 0,000 mm 54 W/m 1,5 C 3,1 C 8,0 km/h (2 Bft) 100 %
29.11.2014 13:20 3,1 C 3,0 C 3,1 C 89 % 1014,5 hPa 0,0 l/m 1,6 km/h (1 Bft) O-SO 112 0 min 0,000 mm 53 W/m 1,5 C 3,1 C 8,0 km/h (2 Bft) 99 %
29.11.2014 13:30 3,1 C 3,1 C 3,1 C 89 % 1014,5 hPa 0,0 l/m 3,2 km/h (1 Bft) O 90 0 min 0,000 mm 53 W/m 1,5 C 3,1 C 11,3 km/h (2 Bft) 100 %
29.11.2014 13:40 3,1 C 3,1 C 3,1 C 89 % 1014,5 hPa 0,0 l/m 1,6 km/h (1 Bft) N-NO 22 0 min 0,000 mm 46 W/m 1,5 C 3,1 C 9,7 km/h (2 Bft) 100 %
29.11.2014 13:50 3,2 C 3,1 C 3,2 C 89 % 1014,5 hPa 0,0 l/m 0,0 km/h (0 Bft) O-NO 67 0 min 0,000 mm 44 W/m 1,6 C 3,2 C 1,6 km/h (1 Bft) 100 %
29.11.2014 14:00 3,2 C 3,2 C 3,2 C 89 % 1014,5 hPa 0,0 l/m 1,6 km/h (1 Bft) N-NO 22 0 min 0,025 mm 44 W/m 1,6 C 3,2 C 8,0 km/h (2 Bft) 100 %
29.11.2014 14:10 3,2 C 3,2 C 3,2 C 89 % 1014,4 hPa 0,0 l/m 0,7 km/h (0 Bft) NO 51 0 min 0,002 mm 40 W/m 1,6 C 3,2 C 6,4 km/h (2 Bft) 98 %
29.11.2014 14:20 3,2 C 3,2 C 3,2 C 88 % 1014,3 hPa 0,0 l/m 1,2 km/h (1 Bft) NO 52 0 min 0,000 mm 33 W/m 1,4 C 3,2 C 9,7 km/h (2 Bft) 97 %
29.11.2014 14:30 3,2 C 3,2 C 3,2 C 89 % 1014,3 hPa 0,0 l/m 0,2 km/h (0 Bft) O-SO 105 0 min 0,000 mm 30 W/m 1,6 C 3,2 C 4,8 km/h (1 Bft) 97 %
29.11.2014 14:40 3,2 C 3,2 C 3,2 C 89 % 1014,2 hPa 0,0 l/m 0,0 km/h (0 Bft) O-SO 123 0 min 0,000 mm 28 W/m 1,6 C 3,2 C 1,6 km/h (1 Bft) 97 %
29.11.2014 14:50 3,2 C 3,2 C 3,2 C 89 % 1014,1 hPa 0,0 l/m 1,4 km/h (1 Bft) SO 126 0 min 0,000 mm 25 W/m 1,6 C 3,2 C 9,7 km/h (2 Bft) 97 %
29.11.2014 15:00 3,2 C 3,2 C 3,2 C 89 % 1014,2 hPa 0,0 l/m 0,5 km/h (0 Bft) O-NO 71 0 min 0,000 mm 23 W/m 1,6 C 3,2 C 6,4 km/h (2 Bft) 98 %
29.11.2014 15:10 3,1 C 3,1 C 3,2 C 89 % 1014,3 hPa 0,0 l/m 0,6 km/h (0 Bft) NO 36 0 min 0,025 mm 19 W/m 1,5 C 3,1 C 6,4 km/h (2 Bft) 98 %
29.11.2014 15:20 3,1 C 3,1 C 3,1 C 89 % 1014,5 hPa 0,0 l/m 1,2 km/h (1 Bft) N-NO 31 0 min 0,000 mm 16 W/m 1,5 C 3,1 C 6,4 km/h (2 Bft) 96 %
29.11.2014 15:30 3,1 C 3,1 C 3,1 C 89 % 1014,3 hPa 0,0 l/m 0,2 km/h (0 Bft) NO 44 0 min 0,000 mm 12 W/m 1,5 C 3,1 C 4,8 km/h (1 Bft) 96 %
29.11.2014 15:40 3,1 C 3,1 C 3,1 C 89 % 1014,3 hPa 0,0 l/m 0,8 km/h (0 Bft) N-NO 17 0 min 0,000 mm 9 W/m 1,5 C 3,1 C 8,0 km/h (2 Bft) 97 %
29.11.2014 15:50 3,1 C 3,0 C 3,1 C 89 % 1014,5 hPa 0,0 l/m 0,5 km/h (0 Bft) N-NO 28 0 min 0,000 mm 7 W/m 1,5 C 3,1 C 4,8 km/h (1 Bft) 97 %
29.11.2014 16:00 3,0 C 2,9 C 3,1 C 89 % 1014,7 hPa 0,0 l/m 0,9 km/h (0 Bft) N-NO 17 0 min 0,000 mm 0 W/m 1,4 C 3,0 C 8,0 km/h (2 Bft) 98 %
29.11.2014 16:10 2,9 C 2,9 C 3,0 C 90 % 1014,6 hPa 0,0 l/m 0,9 km/h (0 Bft) O 92 0 min 0,000 mm 0 W/m 1,4 C 2,9 C 8,0 km/h (2 Bft) 97 %
29.11.2014 16:20 2,9 C 2,9 C 2,9 C 89 % 1014,8 hPa 0,0 l/m 1,1 km/h (1 Bft) O-SO 112 0 min 0,000 mm 0 W/m 1,3 C 2,9 C 6,4 km/h (2 Bft) 98 %
29.11.2014 16:30 2,8 C 2,8 C 2,9 C 90 % 1014,8 hPa 0,0 l/m 1,4 km/h (1 Bft) NW 325 0 min 0,000 mm 0 W/m 1,3 C 2,8 C 11,3 km/h (2 Bft) 97 %
29.11.2014 16:40 2,8 C 2,8 C 2,9 C 90 % 1014,8 hPa 0,0 l/m 0,1 km/h (0 Bft) W-NW 290 0 min 0,000 mm 0 W/m 1,3 C 2,8 C 3,2 km/h (1 Bft) 97 %
29.11.2014 16:50 2,8 C 2,8 C 2,8 C 90 % 1014,6 hPa 0,0 l/m 1,0 km/h (0 Bft) O-SO 103 0 min 0,000 mm 0 W/m 1,3 C 2,8 C 8,0 km/h (2 Bft) 97 %
29.11.2014 17:00 2,8 C 2,8 C 2,8 C 89 % 1014,7 hPa 0,0 l/m 0,4 km/h (0 Bft) O-NO 74 0 min 0,000 mm 0 W/m 1,2 C 2,8 C 4,8 km/h (1 Bft) 97 %
29.11.2014 17:10 2,8 C 2,8 C 2,8 C 90 % 1014,7 hPa 0,0 l/m 1,0 km/h (0 Bft) O-SO 121 0 min 0,000 mm 0 W/m 1,3 C 2,8 C 6,4 km/h (2 Bft) 98 %
29.11.2014 17:20 2,8 C 2,8 C 2,8 C 90 % 1014,8 hPa 0,0 l/m 0,8 km/h (0 Bft) O 86 0 min 0,000 mm 0 W/m 1,3 C 2,8 C 8,0 km/h (2 Bft) 96 %
29.11.2014 17:30 2,8 C 2,8 C 2,8 C 90 % 1014,9 hPa 0,0 l/m 0,8 km/h (0 Bft) O-SO 122 0 min 0,000 mm 0 W/m 1,3 C 2,8 C 8,0 km/h (2 Bft) 98 %
29.11.2014 17:40 2,8 C 2,8 C 2,8 C 90 % 1015,0 hPa 0,0 l/m 0,8 km/h (0 Bft) N-NO 30 0 min 0,000 mm 0 W/m 1,3 C 2,8 C 8,0 km/h (2 Bft) 97 %
29.11.2014 17:50 2,8 C 2,8 C 2,8 C 90 % 1014,9 hPa 0,0 l/m 0,9 km/h (0 Bft) O-SO 105 0 min 0,000 mm 0 W/m 1,3 C 2,8 C 9,7 km/h (2 Bft) 97 %
29.11.2014 18:00 2,8 C 2,8 C 2,8 C 90 % 1014,9 hPa 0,0 l/m 0,2 km/h (0 Bft) S-SO 149 0 min 0,000 mm 0 W/m 1,3 C 2,8 C 6,4 km/h (2 Bft) 98 %
29.11.2014 18:10 2,8 C 2,8 C 2,8 C 90 % 1014,8 hPa 0,0 l/m 0,7 km/h (0 Bft) O-NO 70 0 min 0,000 mm 0 W/m 1,3 C 2,8 C 6,4 km/h (2 Bft) 97 %
29.11.2014 18:20 2,8 C 2,8 C 2,8 C 90 % 1014,9 hPa 0,0 l/m 0,5 km/h (0 Bft) O-SO 123 0 min 0,000 mm 0 W/m 1,3 C 2,8 C 3,2 km/h (1 Bft) 98 %
29.11.2014 18:30 2,8 C 2,8 C 2,8 C 90 % 1014,9 hPa 0,0 l/m 0,5 km/h (0 Bft) O 80 0 min 0,000 mm 0 W/m 1,3 C 2,8 C 4,8 km/h (1 Bft) 97 %
29.11.2014 18:40 2,8 C 2,8 C 2,8 C 90 % 1014,9 hPa 0,0 l/m 0,5 km/h (0 Bft) O 88 0 min 0,000 mm 0 W/m 1,3 C 2,8 C 6,4 km/h (2 Bft) 98 %
29.11.2014 18:50 2,8 C 2,8 C 2,8 C 90 % 1014,8 hPa 0,0 l/m 0,6 km/h (0 Bft) N-NO 30 0 min 0,000 mm 0 W/m 1,3 C 2,8 C 6,4 km/h (2 Bft) 97 %
29.11.2014 19:00 2,8 C 2,8 C 2,8 C 90 % 1014,8 hPa 0,0 l/m 0,8 km/h (0 Bft) N-NW 336 0 min 0,000 mm 0 W/m 1,3 C 2,8 C 6,4 km/h (2 Bft) 96 %
29.11.2014 19:10 2,8 C 2,8 C 2,8 C 90 % 1014,9 hPa 0,0 l/m 0,2 km/h (0 Bft) O-SO 114 0 min 0,000 mm 0 W/m 1,3 C 2,8 C 3,2 km/h (1 Bft) 97 %
29.11.2014 19:20 2,8 C 2,8 C 2,8 C 90 % 1014,8 hPa 0,0 l/m 0,2 km/h (0 Bft) NO 56 0 min 0,000 mm 0 W/m 1,3 C 2,8 C 4,8 km/h (1 Bft) 97 %
29.11.2014 19:30 2,7 C 2,7 C 2,8 C 90 % 1014,8 hPa 0,0 l/m 0,0 km/h (0 Bft) O-NO 57 0 min 0,000 mm 0 W/m 1,2 C 2,7 C 1,6 km/h (1 Bft) 97 %
29.11.2014 19:40 2,8 C 2,7 C 2,8 C 90 % 1014,8 hPa 0,0 l/m 0,2 km/h (0 Bft) NO 53 0 min 0,000 mm 0 W/m 1,3 C 2,8 C 3,2 km/h (1 Bft) 98 %
29.11.2014 19:50 2,7 C 2,7 C 2,8 C 90 % 1014,9 hPa 0,0 l/m 0,2 km/h (0 Bft) NO 42 0 min 0,000 mm 0 W/m 1,2 C 2,7 C 4,8 km/h (1 Bft) 99 %
29.11.2014 20:00 2,7 C 2,7 C 2,7 C 90 % 1015,0 hPa 0,0 l/m 0,1 km/h (0 Bft) NO 42 0 min 0,000 mm 0 W/m 1,2 C 2,7 C 3,2 km/h (1 Bft) 100 %
29.11.2014 20:10 2,7 C 2,7 C 2,7 C 90 % 1014,9 hPa 0,0 l/m 1,0 km/h (0 Bft) O 84 0 min 0,000 mm 0 W/m 1,2 C 2,7 C 6,4 km/h (2 Bft) 99 %
29.11.2014 20:20 2,7 C 2,7 C 2,7 C 90 % 1014,8 hPa 0,0 l/m 0,3 km/h (0 Bft) S-SO 151 0 min 0,000 mm 0 W/m 1,2 C 2,7 C 4,8 km/h (1 Bft) 100 %
29.11.2014 20:30 2,7 C 2,7 C 2,7 C 90 % 1014,9 hPa 0,0 l/m 0,1 km/h (0 Bft) SO 143 0 min 0,000 mm 0 W/m 1,2 C 2,7 C 3,2 km/h (1 Bft) 100 %
29.11.2014 20:40 2,7 C 2,7 C 2,7 C 90 % 1014,9 hPa 0,0 l/m 0,8 km/h (0 Bft) NO 45 0 min 0,000 mm 0 W/m 1,2 C 2,7 C 4,8 km/h (1 Bft) 100 %
29.11.2014 20:50 2,7 C 2,7 C 2,7 C 91 % 1014,8 hPa 0,0 l/m 0,4 km/h (0 Bft) O 84 0 min 0,000 mm 0 W/m 1,4 C 2,7 C 6,4 km/h (2 Bft) 100 %
29.11.2014 21:00 2,7 C 2,7 C 2,7 C 91 % 1014,9 hPa 0,0 l/m 0,1 km/h (0 Bft) S 176 0 min 0,000 mm 0 W/m 1,4 C 2,7 C 3,2 km/h (1 Bft) 100 %
29.11.2014 21:10 2,7 C 2,7 C 2,7 C 90 % 1014,9 hPa 0,0 l/m 0,0 km/h (0 Bft) N 360 0 min 0,000 mm 0 W/m 1,2 C 2,7 C 4,8 km/h (1 Bft) 89 %
29.11.2014 21:20 2,7 C 2,7 C 2,7 C 91 % 1014,8 hPa 0,0 l/m 0,0 km/h (0 Bft) O-NO 67 0 min 0,000 mm 0 W/m 1,4 C 2,7 C 3,2 km/h (1 Bft) 100 %
29.11.2014 21:30 2,7 C 2,7 C 2,7 C 91 % 1015,1 hPa 0,0 l/m 0,0 km/h (0 Bft) O-SO 112 0 min 0,000 mm 0 W/m 1,4 C 2,7 C 3,2 km/h (1 Bft) 100 %
29.11.2014 21:40 2,7 C 2,7 C 2,7 C 91 % 1015,1 hPa 0,0 l/m 0,0 km/h (0 Bft) O-NO 67 0 min 0,000 mm 0 W/m 1,4 C 2,7 C 8,0 km/h (2 Bft) 100 %
29.11.2014 21:50 2,6 C 2,6 C 2,7 C 91 % 1014,8 hPa 0,0 l/m 1,6 km/h (1 Bft) O-NO 67 0 min 0,000 mm 0 W/m 1,3 C 2,6 C 6,4 km/h (2 Bft) 100 %
29.11.2014 22:00 2,6 C 2,6 C 2,6 C 91 % 1014,9 hPa 0,0 l/m 1,6 km/h (1 Bft) NO 45 0 min 0,000 mm 0 W/m 1,3 C 2,6 C 9,7 km/h (2 Bft) 100 %
29.11.2014 22:10 2,6 C 2,6 C 2,6 C 91 % 1014,9 hPa 0,0 l/m 0,0 km/h (0 Bft) W-NW 292 0 min 0,000 mm 0 W/m 1,3 C 2,6 C 3,2 km/h (1 Bft) 100 %
29.11.2014 22:20 2,6 C 2,6 C 2,6 C 91 % 1014,9 hPa 0,0 l/m 0,0 km/h (0 Bft) NO 45 0 min 0,000 mm 0 W/m 1,3 C 2,6 C 4,8 km/h (1 Bft) 100 %
29.11.2014 22:30 2,6 C 2,6 C 2,6 C 91 % 1015,0 hPa 0,0 l/m 1,6 km/h (1 Bft) NO 45 0 min 0,000 mm 0 W/m 1,3 C 2,6 C 6,4 km/h (2 Bft) 100 %
29.11.2014 22:40 2,6 C 2,6 C 2,6 C 91 % 1015,0 hPa 0,0 l/m 0,0 km/h (0 Bft) O-NO 67 0 min 0,000 mm 0 W/m 1,3 C 2,6 C 6,4 km/h (2 Bft) 100 %
29.11.2014 22:50 2,6 C 2,6 C 2,6 C 91 % 1015,0 hPa 0,0 l/m 0,0 km/h (0 Bft) O-SO 112 0 min 0,000 mm 0 W/m 1,3 C 2,6 C 6,4 km/h (2 Bft) 94 %
29.11.2014 23:00 2,6 C 2,6 C 2,6 C 91 % 1014,9 hPa 0,0 l/m 1,6 km/h (1 Bft) O 90 0 min 0,000 mm 0 W/m 1,3 C 2,6 C 4,8 km/h (1 Bft) 96 %
29.11.2014 23:10 2,5 C 2,5 C 2,6 C 91 % 1014,9 hPa 0,0 l/m 1,6 km/h (1 Bft) O-SO 112 0 min 0,000 mm 0 W/m 1,2 C 2,5 C 8,0 km/h (2 Bft) 100 %
29.11.2014 23:20 2,5 C 2,5 C 2,5 C 91 % 1014,9 hPa 0,0 l/m 0,0 km/h (0 Bft) O 90 0 min 0,000 mm 0 W/m 1,2 C 2,5 C 3,2 km/h (1 Bft) 100 %
29.11.2014 23:30 2,4 C 2,4 C 2,5 C 91 % 1014,9 hPa 0,0 l/m 2,9 km/h (1 Bft) O 84 0 min 0,000 mm 0 W/m 1,1 C 2,4 C 8,0 km/h (2 Bft) 100 %
29.11.2014 23:40 2,4 C 2,4 C 2,4 C 91 % 1014,9 hPa 0,0 l/m 0,0 km/h (0 Bft) NO 55 0 min 0,000 mm 0 W/m 1,1 C 2,4 C 1,6 km/h (1 Bft) 100 %
29.11.2014 23:50 2,4 C 2,4 C 2,4 C 91 % 1014,7 hPa 0,0 l/m 0,2 km/h (0 Bft) O 89 0 min 0,000 mm 0 W/m 1,1 C 2,4 C 4,8 km/h (1 Bft) 100 %
_ Min-Zeit 06:00 06:00 06:20 14:20 00:00 - 00:20 - - - - - 06:00 06:00 13:50 08:50
Minimum _ 2,1 C 2,1 C 2,1 C 88 % 1013,4 hPa - 0,0 km/h (0 Bft) - - - - - 0,8 C 2,1 C 1,6 km/h (1 Bft) 88 %
_ Max-Zeit 13:50 14:00 13:50 03:20 10:40 00:00 01:40 - - 00:00 11:00 13:00 13:50 13:50 01:40 08:30
Maximum _ 3,2 C 3,2 C 3,2 C 91 % 1015,5 hPa 0,0 l/m 3,2 km/h
O-NO (1 Bft)
- - 0 min 0,025 mm 56 W/m 1,6 C 3,2 C 17,7 km/h
NO (3 Bft)
100 %
Durchschnitt _ 2,6 C 2,6 C 2,7 C 90 % 1014,6 hPa #0,0 l/m 0,8 km/h (0 Bft) NO - #0 min. #0,127 mm 35 W/m 1,2 C 2,6 C 7,1 km/h (2 Bft) 98 %
PRIVATE WETTERSTATION BILLIGHEIM-ALLFELD - www.neckar-odenwald-wetter.de - Holger Sonntag